EW9826 Weather Reports


time (UTC)temp
C
wind
direction
speed
KPH
gust
KPH
rain 1hr
cm
rain 24hr
cm
rain mn
cm
humidity
%
barometer
mb
20200702103005 18 268 9.7 19.3 0.00 0.13 0.10 72 1010.1
20200702102006 18 291 9.7 25.7 0.00 0.13 0.10 72 1010.1
20200702101006 18 268 16.1 22.5 0.00 0.13 0.10 71 1010.1
20200702100004 18 285 8.0 20.9 0.00 0.13 0.10 73 1009.8
20200702095009 18 239 12.9 24.1 0.00 0.13 0.10 74 1009.6
20200702094007 18 277 12.9 32.2 0.00 0.13 0.10 74 1009.6
20200702093006 18 282 9.7 16.1 0.00 0.13 0.10 74 1009.6
20200702092005 18 242 9.7 19.3 0.00 0.13 0.10 75 1009.5
20200702091005 18 258 8.0 24.1 0.00 0.13 0.10 76 1009.3
20200702085505 18 271 8.0 19.3 0.00 0.13 0.10 75 1009.2
20200702085006 18 251 11.3 27.4 0.00 0.13 0.10 76 1009.2
20200702084505 17 259 9.7 22.5 0.00 0.13 0.10 78 1009.1
20200702084006 17 241 6.4 14.5 0.00 0.13 0.10 78 1009.1
20200702083505 17 216 8.0 20.9 0.00 0.13 0.10 77 1009.1
20200702082505 17 250 12.9 22.5 0.00 0.13 0.10 78 1009.1
20200702082006 17 223 8.0 19.3 0.00 0.13 0.10 79 1009.0
20200702081504 17 213 9.7 20.9 0.00 0.13 0.10 80 1009.0
20200702080007 17 275 8.0 14.5 0.00 0.13 0.10 83 1008.9
20200702075505 17 248 9.7 22.5 0.00 0.13 0.10 84 1008.9
20200702075006 17 252 9.7 20.9 0.00 0.13 0.10 84 1008.8
20200702074505 17 270 8.0 20.9 0.00 0.13 0.10 86 1008.7
20200702073505 16 256 8.0 19.3 0.00 0.13 0.10 89 1008.8
20200702073005 16 235 8.0 16.1 0.05 0.13 0.10 89 1008.7
20200702072006 16 236 8.0 14.5 0.05 0.13 0.10 90 1008.6
20200702071505 16 236 8.0 20.9 0.05 0.13 0.10 90 1008.6
20200702070005 16 233 8.0 14.5 0.05 0.13 0.10 90 1008.6
20200702065504 16 255 3.2 16.1 0.05 0.13 0.10 90 1008.6
20200702065005 16 238 9.7 19.3 0.05 0.13 0.10 90 1008.6
20200702064505 16 237 8.0 14.5 0.05 0.13 0.10 90 1008.5
20200702064005 16 244 9.7 14.5 0.05 0.13 0.10 90 1008.5
20200702063505 16 242 6.4 12.9 0.05 0.13 0.10 90 1008.3
20200702062504 16 205 8.0 14.5 0.05 0.08 0.05 90 1008.3
20200702062006 16 234 8.0 14.5 0.05 0.08 0.05 90 1008.3
20200702061006 16 261 6.4 14.5 0.05 0.05 0.05 90 1008.3
20200702060005 16 229 4.8 9.7 0.05 0.05 0.05 89 1008.3
20200702055513 16 231 4.8 12.9 0.05 0.05 0.05 89 1008.4
20200702054505 16 240 6.4 11.3 0.05 0.05 0.05 89 1008.2
20200702053505 16 244 3.2 14.5 0.05 0.05 0.05 88 1008.2
20200702053006 16 238 9.7 16.1 0.05 0.05 0.05 88 1008.3
20200702052006 16 236 4.8 11.3 0.00 0.03 0.00 88 1008.1
20200702051505 16 254 3.2 9.7 0.00 0.03 0.00 88 1008.1
20200702050005 16 227 3.2 8.0 0.00 0.03 0.00 88 1008.1
20200702045505 16 241 4.8 9.7 0.00 0.03 0.00 88 1008.1
20200702045006 16 235 4.8 12.9 0.00 0.03 0.00 88 1008.0
20200702044505 16 226 4.8 12.9 0.00 0.03 0.00 88 1008.0
20200702044006 16 230 8.0 11.3 0.00 0.03 0.00 88 1008.0
20200702043505 16 230 4.8 9.7 0.00 0.03 0.00 88 1007.9
20200702043005 16 224 4.8 8.0 0.00 0.03 0.00 88 1007.9
20200702042006 16 244 6.4 12.9 0.00 0.03 0.00 88 1007.8
20200702041504 16 237 4.8 9.7 0.00 0.03 0.00 88 1007.7
20200702041005 16 234 8.0 16.1 0.00 0.05 0.00 88 1007.7
20200702035005 16 224 8.0 11.3 0.00 0.05 0.00 88 1007.7
20200702034504 16 230 6.4 16.1 0.00 0.05 0.00 88 1007.7
20200702034005 16 220 8.0 14.5 0.00 0.05 0.00 88 1007.7
20200702033505 16 231 4.8 9.7 0.00 0.05 0.00 88 1007.6
20200702033006 16 251 8.0 11.3 0.00 0.05 0.00 88 1007.6
20200702031504 16 227 8.0 14.5 0.00 0.05 0.00 88 1007.7
20200702031006 16 232 9.7 19.3 0.00 0.05 0.00 88 1007.7
20200702030004 16 232 8.0 16.1 0.00 0.05 0.00 88 1007.6
20200702025005 16 238 4.8 11.3 0.00 0.05 0.00 88 1007.6
20200702024505 16 238 4.8 8.0 0.00 0.05 0.00 88 1007.6
20200702024006 16 248 4.8 12.9 0.00 0.05 0.00 88 1007.6
20200702023505 16 246 8.0 12.9 0.00 0.05 0.00 88 1007.6
20200702023006 16 210 4.8 11.3 0.00 0.05 0.00 88 1007.6
20200702022505 16 222 4.8 9.7 0.00 0.05 0.00 88 1007.6
20200702022005 16 241 6.4 12.9 0.00 0.05 0.00 88 1007.6
20200702021505 16 221 6.4 11.3 0.00 0.05 0.00 88 1007.6
20200702021007 16 213 6.4 16.1 0.00 0.05 0.00 88 1007.6
20200702020006 16 230 8.0 14.5 0.00 0.05 0.00 88 1007.6
20200702015006 16 229 9.7 16.1 0.00 0.05 0.00 88 1007.6
20200702014505 16 235 8.0 16.1 0.00 0.05 0.00 88 1007.6
20200702014006 16 228 3.2 19.3 0.00 0.05 0.00 88 1007.6
20200702013505 16 225 6.4 14.5 0.00 0.05 0.00 88 1007.6
20200702013006 16 226 4.8 11.3 0.00 0.05 0.00 88 1007.6
20200702011504 16 208 6.4 12.9 0.00 0.05 0.00 87 1007.6
20200702005505 16 228 9.7 19.3 0.00 0.05 0.00 87 1007.6
20200702005006 16 237 8.0 12.9 0.00 0.05 0.00 87 1007.6
20200702003505 16 228 8.0 14.5 0.00 0.05 0.00 87 1007.6
20200702002505 16 233 6.4 16.1 0.00 0.05 0.00 87 1007.6
20200702002006 16 223 8.0 14.5 0.00 0.05 0.00 87 1007.6
20200702001505 16 230 6.4 14.5 0.00 0.05 0.00 87 1007.6
20200702001005 16 219 8.0 22.5 0.00 0.05 0.00 87 1007.6
20200702000005 16 216 6.4 12.9 0.00 0.05 0.00 87 1007.6
20200701234505 16 233 4.8 11.3 0.00 0.05 0.00 87 1007.6
20200701234006 16 240 4.8 9.7 0.00 0.05 0.00 87 1007.5
20200701233005 16 216 6.4 12.9 0.00 0.05 0.00 87 1007.6
20200701232505 16 233 8.0 14.5 0.00 0.05 0.00 87 1007.6
20200701232006 16 236 4.8 12.9 0.00 0.05 0.00 87 1007.6
20200701231504 16 224 6.4 11.3 0.00 0.05 0.00 86 1007.6
20200701230005 16 230 4.8 16.1 0.00 0.05 0.00 86 1007.6
20200701225505 16 244 4.8 9.7 0.00 0.05 0.00 86 1007.6
20200701225005 16 245 4.8 9.7 0.00 0.05 0.00 86 1007.6
20200701224506 16 198 4.8 11.3 0.00 0.05 0.00 85 1007.6
20200701224005 16 228 6.4 14.5 0.00 0.05 0.00 85 1007.6
20200701223505 16 218 4.8 12.9 0.00 0.08 0.00 85 1007.6
20200701223005 16 234 8.0 14.5 0.00 0.08 0.00 85 1007.6
20200701222005 16 229 8.0 14.5 0.00 0.08 0.00 84 1007.6
20200701221505 16 239 8.0 12.9 0.00 0.08 0.00 84 1007.5
20200701221005 16 246 8.0 14.5 0.00 0.08 0.00 83 1007.6
20200701220006 16 235 6.4 12.9 0.00 0.08 0.00 83 1007.6
20200701215505 16 252 9.7 19.3 0.00 0.08 0.08 83 1007.5
20200701215005 16 256 8.0 14.5 0.00 0.08 0.08 82 1007.5
20200701214505 16 254 6.4 16.1 0.00 0.08 0.08 82 1007.5
20200701214005 16 234 8.0 19.3 0.00 0.08 0.08 82 1007.5
20200701213006 16 243 8.0 20.9 0.00 0.10 0.08 81 1007.4
20200701212505 16 234 8.0 12.9 0.00 0.10 0.08 81 1007.4
20200701212005 16 228 4.8 16.1 0.00 0.13 0.08 81 1007.5
20200701211505 16 243 8.0 19.3 0.00 0.15 0.08 81 1007.3
20200701211006 16 239 8.0 19.3 0.00 0.15 0.08 81 1007.3
20200701205504 17 238 4.8 14.5 0.00 0.18 0.08 80 1007.1
20200701205005 17 236 9.7 16.1 0.00 0.18 0.08 80 1007.1
20200701204505 17 237 11.3 19.3 0.00 0.20 0.08 80 1007.1
20200701204005 17 239 9.7 19.3 0.00 0.20 0.08 79 1007.1
20200701203505 17 253 9.7 16.1 0.00 0.23 0.08 79 1007.0
20200701203006 17 246 9.7 24.1 0.00 0.23 0.08 79 1007.0
20200701202506 17 238 6.4 20.9 0.00 0.25 0.08 78 1007.0
20200701202006 17 239 11.3 19.3 0.00 0.28 0.08 78 1007.0
20200701201006 17 240 9.7 20.9 0.00 0.28 0.08 78 1007.0
20200701200005 17 242 8.0 24.1 0.00 0.28 0.08 78 1006.9
20200701195505 17 228 9.7 19.3 0.00 0.28 0.08 78 1006.9
20200701195006 17 250 9.7 20.9 0.00 0.28 0.08 78 1006.8
20200701194504 17 247 4.8 19.3 0.00 0.28 0.08 78 1006.8
20200701194006 17 241 9.7 19.3 0.00 0.28 0.08 77 1006.8
20200701192505 17 238 9.7 19.3 0.00 0.28 0.08 76 1006.7
20200701192005 17 250 11.3 20.9 0.00 0.28 0.08 76 1006.8
20200701191005 17 262 12.9 24.1 0.00 0.28 0.08 76 1006.9
20200701190006 18 227 8.0 19.3 0.00 0.28 0.08 76 1006.7
20200701185505 18 237 11.3 24.1 0.00 0.28 0.08 75 1006.8
20200701185006 18 234 12.9 20.9 0.00 0.28 0.08 75 1006.8
20200701184505 18 251 14.5 25.7 0.00 0.30 0.08 74 1006.7
20200701184006 18 272 9.7 20.9 0.00 0.30 0.08 74 1006.7
20200701183005 18 273 14.5 33.8 0.00 0.30 0.08 73 1006.9
20200701182505 18 244 11.3 33.8 0.00 0.30 0.08 73 1006.9
20200701182006 18 243 9.7 22.5 0.00 0.30 0.08 73 1006.8
20200701181505 18 250 11.3 29.0 0.00 0.30 0.08 73 1006.7
20200701180005 18 262 9.7 19.3 0.00 0.30 0.08 73 1006.8
20200701175505 18 244 11.3 19.3 0.00 0.30 0.08 72 1006.6
20200701174006 18 245 14.5 25.7 0.00 0.30 0.08 72 1006.5
20200701173505 18 270 12.9 25.7 0.00 0.33 0.08 72 1006.5
20200701172504 18 256 17.7 32.2 0.00 0.33 0.08 72 1006.5
20200701172006 18 247 14.5 27.4 0.00 0.33 0.08 72 1006.5
20200701171505 18 232 14.5 27.4 0.00 0.33 0.08 72 1006.5
20200701171005 18 235 14.5 29.0 0.00 0.36 0.08 72 1006.5
20200701165505 18 245 9.7 22.5 0.00 0.36 0.08 72 1006.5
20200701165005 18 234 14.5 24.1 0.00 0.38 0.08 72 1006.5
20200701164505 19 262 9.7 22.5 0.00 0.41 0.08 72 1006.5
20200701163505 19 262 8.0 27.4 0.00 0.41 0.08 72 1006.5
20200701163006 18 250 11.3 20.9 0.00 0.46 0.08 72 1006.5
20200701162005 18 260 14.5 27.4 0.00 0.51 0.08 71 1006.5
20200701160006 19 256 16.1 33.8 0.00 0.53 0.08 69 1006.4
20200701155505 19 267 16.1 32.2 0.00 0.53 0.08 67 1006.4
20200701155006 20 232 11.3 29.0 0.00 0.53 0.08 67 1006.4
20200701153505 19 259 14.5 29.0 0.00 0.53 0.08 68 1006.4
20200701153006 20 256 14.5 27.4 0.00 0.53 0.08 68 1006.4
20200701152504 19 241 14.5 25.7 0.00 0.53 0.08 70 1006.3
20200701152006 19 251 9.7 32.2 0.00 0.53 0.08 69 1006.3
20200701151505 19 255 14.5 33.8 0.00 0.53 0.08 68 1006.2
20200701151006 20 256 11.3 29.0 0.00 0.56 0.08 69 1006.1
20200701150006 19 250 16.1 25.7 0.00 0.56 0.08 68 1006.0
20200701145505 19 251 14.5 29.0 0.00 0.56 0.08 68 1006.0
20200701144504 19 243 14.5 25.7 0.00 0.56 0.08 70 1006.0
20200701143005 19 239 14.5 22.5 0.00 0.58 0.08 71 1006.0
20200701142505 18 247 12.9 22.5 0.00 0.58 0.08 71 1006.0
20200701142006 19 236 9.7 25.7 0.00 0.61 0.08 70 1006.0
20200701141006 18 264 11.3 32.2 0.00 0.64 0.08 70 1006.0
20200701135005 18 237 9.7 29.0 0.00 0.69 0.08 74 1005.9
20200701134505 18 245 16.1 32.2 0.00 0.71 0.08 73 1005.9
20200701133505 18 241 14.5 25.7 0.00 0.74 0.08 74 1005.9
20200701133006 18 249 11.3 27.4 0.00 0.79 0.08 74 1005.8
20200701132504 18 240 11.3 27.4 0.00 0.84 0.08 74 1005.8
20200701131505 18 250 9.7 24.1 0.00 0.86 0.08 72 1005.7
20200701131005 18 263 11.3 27.4 0.00 0.86 0.08 71 1005.7
20200701125006 18 254 11.3 29.0 0.00 0.86 0.08 73 1005.5
20200701124505 18 247 11.3 25.7 0.00 0.86 0.08 71 1005.5
20200701124005 18 247 11.3 25.7 0.00 0.86 0.08 72 1005.5
20200701123006 18 251 17.7 32.2 0.00 0.86 0.08 74 1005.5
20200701122505 18 262 9.7 19.3 0.00 0.86 0.08 75 1005.4
20200701122005 18 261 12.9 24.1 0.00 0.86 0.08 75 1005.5
20200701121505 18 257 16.1 33.8 0.00 0.86 0.08 75 1005.4
20200701120006 18 269 16.1 33.8 0.00 0.86 0.08 75 1005.4
20200701115505 18 254 11.3 24.1 0.00 0.86 0.08 76 1005.1
20200701115006 18 236 12.9 32.2 0.00 0.86 0.08 76 1005.1
20200701114005 18 249 14.5 27.4 0.00 0.86 0.08 74 1005.0
20200701113506 18 231 17.7 32.2 0.03 0.86 0.08 73 1005.0
20200701113006 18 240 11.3 20.9 0.03 0.86 0.08 75 1005.0
20200701112504 18 246 12.9 29.0 0.03 0.86 0.08 77 1005.0
20200701112006 18 254 11.3 22.5 0.03 0.86 0.08 77 1005.0
20200701110005 18 223 16.1 33.8 0.03 0.86 0.08 78 1004.9
20200701105006 18 248 17.7 33.8 0.03 0.86 0.08 78 1004.8
20200701104505 18 272 19.3 32.2 0.03 0.86 0.08 77 1004.8